Location: Mentone
(34.5413°N, 85.5351°W)
Time: 01:10:19
(UTC-05:00)

Uosat F - Visible Passes

Search period start: 30 August 2014 00:00
Search period end: 09 September 2014 00:00
Orbit: 751 x 763 km, 98.7° (Epoch: 29 August)

Date Brightness Start Highest point End Pass type
(mag) Time Alt. Az. Time Alt. Az. Time Alt. Az.
30 Aug 12.0 04:39:34 10° NNE 04:44:23 46° E 04:49:11 10° S visible
31 Aug 13.6 04:01:41 10° NE 04:05:05 18° E 04:08:28 10° SE visible
31 Aug 11.5 05:39:18 10° N 05:43:59 41° WNW 05:48:39 10° SW visible
01 Sep 11.2 04:59:58 10° NNE 05:04:59 77° ESE 05:09:59 10° S visible
02 Sep 12.9 04:21:26 10° NE 04:25:47 29° E 04:30:07 10° SSE visible
03 Sep 14.0 03:44:58 10° ENE 03:46:22 11° E 03:47:46 10° ESE visible
03 Sep 11.1 05:20:34 10° N 05:25:32 66° WNW 05:30:29 10° SSW visible
04 Sep 12.0 04:41:36 10° NNE 04:46:26 48° E 04:51:15 10° S visible
05 Sep 13.5 04:03:38 10° NE 04:07:08 19° E 04:10:37 10° SE visible
05 Sep 11.6 05:41:22 10° N 05:46:01 40° WNW 05:50:40 10° SW visible
06 Sep 11.2 05:02:00 10° NNE 05:07:02 80° ESE 05:12:02 10° S visible
07 Sep 12.8 04:23:26 10° NE 04:27:50 30° E 04:32:13 10° SSE visible
08 Sep 13.9 03:46:44 10° ENE 03:48:26 12° E 03:50:07 10° ESE visible
08 Sep 11.1 05:22:37 10° N 05:27:34 64° WNW 05:32:31 10° SSW visible
